Location: Kra?nica
(53.4833°N, 14.6167°E)
Time: 20:56:55
(UTC+00:00)

Cosmos 1703 Rocket - Pass Details

Date: 23 May 2024
Orbit: 602 x 629 km, 82.5° (Epoch: 20 June)

Event Time Altitude Azimuth Distance (km) Brightness Sun altitude
Exits shadow 00:59:03 16° 200° (SSW) 1,624 5.1 -11.4°
Maximum altitude 01:02:31 71° 283° (WNW) 667 3.6 -11.2°
Drops below altitude 10° 01:07:00 10° 8° (N) 2,019 7.4 -10.8°
Sets 01:09:16 0° 10° (N) 2,933 8.5 -10.7°
